CW8014 Weather Reports


time (UTC)temp
C
wind
direction
speed
KPH
gust
KPH
rain 1hr
cm
rain 24hr
cm
rain mn
cm
humidity
%
barometer
mb
20260507060407 7 9 4.8 8.0 0.00 0.00 0.00 96 1014.2
20260507055404 6 336 4.8 6.4 0.00 0.00 0.00 96 1014.1
20260507054404 6 327 4.8 6.4 0.00 0.00 0.00 96 1014.0
20260507053404 6 360 3.2 6.4 0.00 0.00 0.00 96 1013.9
20260507051404 5 340 3.2 4.8 0.00 0.00 0.00 95 1013.7
20260507050404 4 339 1.6 3.2 0.00 0.00 0.00 96 1013.5
20260507044404 3 313 3.2 4.8 0.00 0.00 0.00 95 1013.4
20260507043404 3 5 1.6 3.2 0.00 0.00 0.00 95 1013.3
20260507042404 2 5 0.0 1.6 0.00 0.00 0.00 95 1013.2
20260507041404 2 5 0.0 0.0 0.00 0.00 0.00 95 1013.1
20260507040404 2 5 0.0 0.0 0.00 0.00 0.00 94 1013.0
20260507035405 2 5 0.0 0.0 0.00 0.00 0.00 94 1013.0
20260507034405 2 5 0.0 1.6 0.00 0.00 0.00 94 1012.9
20260507032405 3 5 0.0 1.6 0.00 0.00 0.00 94 1012.8
20260507031405 3 5 0.0 1.6 0.00 0.00 0.00 94 1012.7
20260507030408 3 5 0.0 1.6 0.00 0.00 0.00 94 1012.6
20260507025406 3 5 0.0 0.0 0.00 0.00 0.00 94 1012.5
20260507024405 3 5 3.2 3.2 0.00 0.00 0.00 94 1012.6
20260507023405 3 5 1.6 3.2 0.00 0.00 0.00 94 1012.5
20260507022405 3 5 1.6 1.6 0.00 0.00 0.00 94 1012.5
20260507021405 3 5 0.0 1.6 0.00 0.00 0.00 94 1012.4
20260507020405 3 5 0.0 0.0 0.00 0.00 0.00 94 1012.3
20260507014405 4 5 1.6 3.2 0.00 0.00 0.00 94 1012.2
20260507013406 4 5 3.2 3.2 0.00 0.00 0.00 93 1012.1
20260507012406 4 5 1.6 4.8 0.00 0.00 0.00 93 1012.0
20260507011406 4 5 3.2 4.8 0.00 0.00 0.00 93 1012.0
20260507004406 5 355 1.6 3.2 0.00 0.00 0.00 93 1011.9
20260507003406 5 344 3.2 6.4 0.00 0.00 0.00 93 1011.8
20260507002406 5 343 3.2 6.4 0.00 0.00 0.00 93 1011.7
20260507001406 5 345 3.2 6.4 0.00 0.00 0.00 93 1011.7
20260506235407 5 335 3.2 6.4 0.00 0.00 0.00 93 1011.7
20260506234406 5 336 4.8 6.4 0.00 0.00 0.00 93 1011.8
20260506232406 5 355 3.2 4.8 0.00 0.00 0.00 93 1011.8
20260506231409 5 348 3.2 4.8 0.00 0.00 0.00 92 1011.7
20260506225407 5 347 3.2 4.8 0.00 0.00 0.00 92 1011.7
20260506224407 5 347 1.6 3.2 0.00 0.00 0.00 92 1011.7
20260506223406 6 347 3.2 6.4 0.00 0.00 0.00 92 1011.7
20260506222407 6 331 3.2 6.4 0.00 0.00 0.00 92 1011.7
20260506220407 6 339 3.2 4.8 0.00 0.00 0.00 90 1011.6
20260506215407 6 338 3.2 6.4 0.00 0.00 0.00 90 1011.6
20260506214410 6 351 3.2 6.4 0.00 0.00 0.00 90 1011.5
20260506213410 6 340 3.2 6.4 0.00 0.00 0.00 89 1011.5
20260506212407 7 333 4.8 8.0 0.00 0.00 0.00 89 1011.4
20260506211411 7 336 4.8 8.0 0.00 0.00 0.00 88 1011.3
20260506210407 7 339 3.2 8.0 0.00 0.00 0.00 88 1011.3
20260506205407 7 333 3.2 8.0 0.00 0.00 0.00 88 1011.3
20260506204407 7 325 4.8 8.0 0.00 0.00 0.00 87 1011.3
20260506202407 8 9 4.8 9.7 0.00 0.00 0.00 85 1011.1
20260506201407 8 338 4.8 9.7 0.00 0.00 0.00 85 1011.1
20260506195408 8 5 6.4 12.9 0.00 0.00 0.00 83 1011.0
20260506194407 8 351 8.0 14.5 0.00 0.00 0.00 82 1010.9
20260506193408 9 343 8.0 14.5 0.00 0.00 0.00 82 1010.8
20260506192408 9 347 8.0 16.1 0.00 0.00 0.00 81 1010.7
20260506191408 9 355 8.0 14.5 0.00 0.00 0.00 80 1010.6
20260506185411 10 336 8.0 14.5 0.00 0.00 0.00 78 1010.3
20260506184408 11 360 11.3 16.1 0.00 0.00 0.00 77 1010.3
20260506183408 11 333 6.4 14.5 0.00 0.00 0.00 77 1010.1
20260506182408 11 24 4.8 11.3 0.00 0.00 0.00 76 1010.0
20260506181408 11 86 1.6 4.8 0.00 0.00 0.00 76 1010.0
20260506180408 11 84 1.6 4.8 0.00 0.00 0.00 74 1009.9
20260506174409 11 178 4.8 6.4 0.00 0.00 0.00 73 1009.7
20260506173408 11 127 3.2 8.0 0.00 0.00 0.00 73 1009.6
20260506172408 11 116 6.4 11.3 0.00 0.00 0.00 73 1009.6
20260506171409 11 109 3.2 9.7 0.00 0.00 0.00 72 1009.6
20260506170409 11 119 4.8 11.3 0.00 0.00 0.00 72 1009.5
20260506165409 11 86 4.8 11.3 0.00 0.00 0.00 71 1009.4
20260506164409 12 153 4.8 9.7 0.00 0.00 0.00 71 1009.3
20260506163409 12 95 4.8 8.0 0.00 0.00 0.00 70 1009.3
20260506162409 12 107 4.8 6.4 0.00 0.00 0.00 71 1009.4
20260506161412 12 146 4.8 11.3 0.00 0.00 0.00 70 1009.3
20260506160409 12 166 3.2 6.4 0.00 0.00 0.00 69 1009.2
20260506154409 12 124 6.4 11.3 0.00 0.00 0.00 67 1009.3
20260506153409 12 87 3.2 11.3 0.00 0.00 0.00 69 1009.2
20260506152409 12 96 8.0 12.9 0.00 0.00 0.00 68 1009.2
20260506151409 12 146 6.4 14.5 0.00 0.00 0.00 67 1009.1
20260506150412 12 121 4.8 9.7 0.00 0.00 0.00 71 1009.1
20260506145409 12 143 6.4 14.5 0.00 0.00 0.00 70 1009.0
20260506144410 12 146 6.4 12.9 0.00 0.00 0.00 70 1009.1
20260506143410 12 116 6.4 11.3 0.00 0.00 0.00 68 1009.1
20260506142501 13 130 4.8 11.3 0.00 0.00 0.00 68 1009.1
20260506142400 13 134 4.8 8.0 0.00 0.00 0.00 68 1009.1
20260506141401 13 103 6.4 11.3 0.00 0.00 0.00 66 1009.1
20260506140401 13 118 6.4 12.9 0.00 0.00 0.00 67 1009.0
20260506135401 13 135 6.4 14.5 0.00 0.00 0.00 69 1009.0
20260506134401 13 160 6.4 12.9 0.00 0.00 0.00 69 1009.1
20260506132404 12 151 3.2 8.0 0.00 0.00 0.00 72 1009.1
20260506131404 12 140 6.4 14.5 0.00 0.00 0.00 72 1009.1
20260506130401 12 146 6.4 11.3 0.00 0.00 0.00 73 1009.0
20260506125401 12 111 6.4 14.5 0.00 0.00 0.00 70 1009.0
20260506124401 12 113 6.4 14.5 0.00 0.00 0.00 68 1009.0
20260506122401 12 111 4.8 11.3 0.00 0.00 0.00 65 1009.0
20260506121401 12 82 4.8 8.0 0.00 0.00 0.00 62 1008.8
20260506120401 12 103 6.4 12.9 0.00 0.00 0.00 60 1008.8
20260506115401 12 92 4.8 11.3 0.00 0.00 0.00 61 1008.7
20260506114402 12 10 6.4 16.1 0.00 0.00 0.00 59 1008.8
20260506113401 12 103 6.4 14.5 0.00 0.00 0.00 60 1008.8
20260506104405 12 47 6.4 19.3 0.00 0.00 0.00 63 1008.6
20260506103403 11 53 6.4 16.1 0.00 0.00 0.00 64 1008.6
20260506102402 11 54 9.7 22.5 0.00 0.00 0.00 64 1008.6
20260506101402 11 49 6.4 17.7 0.00 0.00 0.00 65 1008.6
20260506095405 11 49 6.4 17.7 0.00 0.00 0.00 65 1008.5
20260506094405 11 75 4.8 14.5 0.00 0.00 0.00 66 1008.5
20260506093402 11 43 4.8 19.3 0.00 0.00 0.00 66 1008.5
20260506092402 11 360 4.8 14.5 0.00 0.00 0.00 67 1008.5
20260506091402 11 114 3.2 14.5 0.00 0.00 0.00 67 1008.5
20260506090402 11 17 8.0 16.1 0.00 0.00 0.00 67 1008.5
20260506085402 11 360 3.2 9.7 0.00 0.00 0.00 68 1008.4
20260506084402 10 44 4.8 19.3 0.00 0.00 0.00 67 1008.3
20260506083403 10 52 4.8 11.3 0.00 0.00 0.00 71 1008.2
20260506082403 10 57 3.2 6.4 0.00 0.00 0.00 71 1008.2
20260506081403 10 71 3.2 11.3 0.00 0.00 0.00 72 1008.1
20260506080403 10 30 4.8 17.7 0.00 0.00 0.00 75 1008.1
20260506072403 10 15 6.4 14.5 0.00 0.00 0.00 82 1007.9
20260506071403 10 309 6.4 16.1 0.00 0.00 0.00 82 1007.9
20260506070403 10 360 4.8 11.3 0.00 0.00 0.00 83 1007.9
20260506061404 10 355 4.8 12.9 0.00 0.00 0.00 82 1007.8